Regional Weather Roundup
Issued by NWS State College, PA

Home | Current Version | Previous Version | Text Only | Print | Product List | Glossary On
Versions: 1 2 3 4 5 6 7 8 9 10 11 12 13 14 15 16 17 18 19 20 21 22 23 24 25 26 27 28 29 30 31 32 33 34 35 36 37 38 39 40 41 42 43 44 45 46 47 48 49 50
000
ASUS41 KCTP 181103
RWRCTP

REGIONAL WEATHER ROUNDUP
NATIONAL WEATHER SERVICE STATE COLLEGE PA
700 AM EDT FRI AUG 18 2017

Note: "fair" indicates few or no clouds below 12,000 feet with no
significant weather and/or obstructions to visibility.

* = STATION THAT DOES NOT REPORT PRECIPITATION /E.G. RAIN...SNOW...ETC/
    THUNDER OR FOG.

PAZ002>004-007>009-013>016-020>023-029>032-181200-
WESTERN PENNSYLVANIA

CITY           SKY/WX    TMP DP  RH WIND       PRES   REMARKS
ERIE           CLEAR     72  69  90 S9        29.78R
MEADVILLE      CLOUDY    70  70 100 SW6       29.84R FOG
FRANKLIN*      CLOUDY    70  66  88 S5        29.86R
NEW CASTLE     CLOUDY    72  71  97 VRB3      29.85R
BEAVER COUNTY  NOT AVBL
BUTLER*        CLOUDY    72  70  94 S3        29.87R
PITTSBURGH INT CLOUDY    72  72 100 S3        29.85S
PITTSBURGH     CLOUDY    71  69  93 S6        29.86R
INDIANA*       CLOUDY    72  72 100 SW5       29.90R
LATROBE        CLOUDY    72  72 100 SW7       29.87S
WASHINGTON CO* CLOUDY    72  68  88 SW6       29.87S
$$

PAZ004>006-010>012-017>019-024>028-033>037-041-042-045-046-049>053-181200-
CENTRAL PENNSYLVANIA

CITY           SKY/WX    TMP DP  RH WIND       PRES   REMARKS
BRADFORD       CLOUDY    70  69  97 VRB5      29.88R
DUBOIS         CLOUDY    70  68  93 SW6       29.87S FOG
CLEARFIELD     LGT RAIN  70  70 100 S6        29.88R FOG
JOHNSTOWN      CLOUDY    70  69  97 S6        29.92R
ALTOONA        CLOUDY    71  71 100 S6        29.89S FOG
STATE COLLEGE  DRIZZLE   72  70  94 SW6       29.87R
WILLIAMSPORT   LGT RAIN  76  75  97 CALM      29.82R
SELINSGROVE    CLOUDY    75  74  96 CALM      29.85R FOG
FT INDIANTOWN  CLOUDY    74  74 100 NE3       29.86S FOG
CAPITAL CITY   CLOUDY    78  73  84 CALM      29.86R
HARRISBURG     CLOUDY    78  75  90 VRB3      29.85R
YORK           CLOUDY    76  75  97 CALM      29.86R
$$

PAZ038>040-043-044-047-048-054-055-060>062-067>071-181200-
EASTERN PENNSYLVANIA

CITY           SKY/WX    TMP DP  RH WIND       PRES   REMARKS
SCRANTON       MOCLDY    74  71  91 CALM      29.87S
MOUNT POCONO   FOG       68  68 100 SW5       29.93S VSB 3/4
ALLENTOWN      CLOUDY    74  69  85 S5        29.88S
QUAKERTOWN*    CLOUDY    73  70  88 CALM      29.90S
READING        CLOUDY    75  74  96 S5        29.86S
LANCASTER      CLOUDY    75  74  96 SE6       29.87S
COATESVILLE    CLOUDY    72  72 100 CALM      29.91R FOG
POTTSTOWN      CLOUDY    73  70  90 S3        29.90S
BLUE BELL      CLOUDY    72  70  94 S5        29.90S
DOYLESTOWN     LGT RAIN  72  71  97 NE3       29.89R
WILLOW GROVE   NOT AVBL
NORTH PHILA    CLOUDY    77  71  82 CALM      29.90S
PHILADELPHIA   CLOUDY    76  73  91 S6        29.88S
$$




USA.gov is the U.S. government's official web portal to all federal, state and local government web resources and services.